Location: Newark
(44.7167°N, 8.0833°E)
Time: 08:33:17
(UTC+00:00)

Envisat - Visible Passes

Search period start: 14 December 2019 00:00
Search period end: 24 December 2019 00:00
Orbit: 764 x 766 km, 98.1° (Epoch: 14 December)

Date Brightness Start Highest point End Pass type
(mag) Time Alt. Az. Time Alt. Az. Time Alt. Az.
14 Dec 5.0 05:33:33 10° NNE 05:38:03 31° E 05:42:31 10° SSE visible
14 Dec 3.2 16:49:40 10° SE 16:54:32 49° ENE 16:59:25 10° N visible
14 Dec 5.4 18:29:55 10° SW 18:33:48 22° W 18:37:44 10° NW visible
15 Dec 6.0 04:58:08 10° NE 05:00:55 15° E 05:03:40 10° ESE visible
15 Dec 4.0 17:51:54 10° S 17:56:46 46° W 18:01:41 10° NNW visible
16 Dec 3.9 05:58:42 10° NNE 06:03:41 53° E 06:08:38 10° S visible
16 Dec 2.9 17:14:52 10° SSE 17:19:56 82° ENE 17:25:03 10° NNW visible
16 Dec 6.1 18:57:24 10° WSW 18:59:36 13° W 19:01:48 10° WNW visible
17 Dec 5.4 05:22:31 10° NE 05:26:41 25° E 05:30:49 10° SSE visible
17 Dec 3.4 16:38:37 10° SE 16:43:19 39° ENE 16:48:01 10° N visible
17 Dec 5.0 18:18:08 10° SSW 18:22:25 27° W 18:26:45 10° NW visible
18 Dec 6.3 04:47:54 10° ENE 04:49:29 11° E 04:51:03 10° ESE visible
18 Dec 3.1 06:24:05 10° NNE 06:29:13 90° SW 06:34:18 10° SSW visible
18 Dec 3.6 17:40:27 10° S 17:45:27 59° W 17:50:29 10° NNW visible
19 Dec 4.4 05:47:31 10° NNE 05:52:21 42° E 05:57:09 10° S visible
19 Dec 2.9 17:03:40 10° SSE 17:08:41 66° ENE 17:13:44 10° N visible
19 Dec 5.8 18:45:05 10° SW 18:48:11 16° W 18:51:18 10° NW visible
20 Dec 5.7 05:11:35 10° NE 05:15:17 20° E 05:18:59 10° SE visible
20 Dec 3.7 16:27:39 10° SE 16:32:06 32° ENE 16:36:34 10° N visible
20 Dec 4.6 18:06:29 10° SSW 18:11:04 34° W 18:15:41 10° NNW visible
21 Dec 3.3 06:12:49 10° NNE 06:17:56 73° ESE 06:22:59 10° S visible
21 Dec 3.2 17:29:05 10° S 17:34:09 74° WSW 17:39:15 10° NNW visible
22 Dec 4.8 05:36:24 10° NNE 05:41:00 34° E 05:45:35 10° SSE visible
22 Dec 3.1 16:52:31 10° SSE 16:57:26 53° ENE 17:02:22 10° N visible
22 Dec 5.5 18:33:04 10° SW 18:36:47 20° W 18:40:30 10° NW visible
23 Dec 6.0 05:00:48 10° NE 05:03:53 16° E 05:06:58 10° SE visible
23 Dec 3.9 16:16:46 10° ESE 16:20:54 26° ENE 16:25:05 10° N visible
23 Dec 4.2 17:54:55 10° S 17:59:43 42° W 18:04:33 10° NNW visible
